BAW31 EGLL-EGCC

Flight info

Callsign BAW31
Flight time 0h 36m
Altitude 18000
Route ULTIB T420 ELVOS
Aircraft B77W/H-SDE2E3FGHIJ5LORVWXY/LB1D1

Departure

Time 2026-05-05 19:17
Airport London Heathrow Airport (EGLL)

Arrival

Time 2026-05-05 19:54
Airport Manchester Airport (EGCC)
Time Latitude Longitude Altitude Speed Heading
2026-05-05 18:34 51.47123 -0.47732 86 ft 0 kts 90°
2026-05-05 18:58 51.47123 -0.47746 86 ft 2 kts 90°
2026-05-05 18:59 51.47123 -0.47770 86 ft 2 kts 90°
2026-05-05 18:59 51.47123 -0.47795 85 ft 2 kts 90°
2026-05-05 18:59 51.47123 -0.47818 85 ft 2 kts 90°
2026-05-05 18:59 51.47123 -0.47843 85 ft 2 kts 105°
2026-05-05 19:00 51.47130 -0.47863 85 ft 2 kts 138°
2026-05-05 19:00 51.47142 -0.47875 85 ft 2 kts 166°
2026-05-05 19:00 51.47156 -0.47877 85 ft 2 kts 185°
2026-05-05 19:00 51.47171 -0.47876 84 ft 2 kts 182°
2026-05-05 19:01 51.47181 -0.47875 84 ft 0 kts 180°
2026-05-05 19:05 51.47180 -0.47875 84 ft 0 kts 180°
2026-05-05 19:06 51.47171 -0.47875 84 ft 3 kts 181°
2026-05-05 19:06 51.47122 -0.47876 85 ft 8 kts 180°
2026-05-05 19:06 51.47061 -0.47874 86 ft 8 kts 180°
2026-05-05 19:07 51.47001 -0.47873 87 ft 8 kts 179°
2026-05-05 19:07 51.46938 -0.47871 87 ft 9 kts 180°
2026-05-05 19:07 51.46867 -0.47871 87 ft 10 kts 181°
2026-05-05 19:07 51.46788 -0.47875 87 ft 11 kts 188°
2026-05-05 19:08 51.46742 -0.47961 87 ft 11 kts 270°
2026-05-05 19:08 51.46743 -0.48047 87 ft 1 kts 270°
2026-05-05 19:08 51.46743 -0.48055 87 ft 0 kts 270°
2026-05-05 19:10 51.46743 -0.48082 87 ft 6 kts 270°
2026-05-05 19:10 51.46743 -0.48202 86 ft 15 kts 270°
2026-05-05 19:11 51.46743 -0.48394 85 ft 17 kts 270°
2026-05-05 19:11 51.46743 -0.48591 84 ft 10 kts 271°
2026-05-05 19:11 51.46733 -0.48710 84 ft 10 kts 240°
2026-05-05 19:11 51.46663 -0.48752 84 ft 11 kts 183°
2026-05-05 19:12 51.46628 -0.48762 84 ft 0 kts 194°
2026-05-05 19:13 51.46597 -0.48775 84 ft 9 kts 194°
2026-05-05 19:13 51.46522 -0.48771 84 ft 11 kts 156°
2026-05-05 19:14 51.46479 -0.48667 84 ft 11 kts 101°
2026-05-05 19:14 51.46478 -0.48608 84 ft 0 kts 91°
2026-05-05 19:14 51.46478 -0.48607 84 ft 0 kts 91°
2026-05-05 19:16 51.46477 -0.48513 84 ft 36 kts 90°
2026-05-05 19:17 51.46481 -0.47574 88 ft 132 kts 89°
2026-05-05 19:17 51.46483 -0.45800 603 ft 170 kts 89°
2026-05-05 19:17 51.46473 -0.43964 1665 ft 169 kts 84°
2026-05-05 19:17 51.46642 -0.42113 2313 ft 176 kts 75°
2026-05-05 19:18 51.47049 -0.40192 2841 ft 192 kts 59°
2026-05-05 19:18 51.47889 -0.38409 3474 ft 208 kts 50°
2026-05-05 19:18 51.48836 -0.36576 4145 ft 224 kts 50°
2026-05-05 19:18 51.49871 -0.34577 4801 ft 242 kts 50°
2026-05-05 19:19 51.50966 -0.32464 5442 ft 255 kts 50°
2026-05-05 19:19 51.52075 -0.30177 5763 ft 261 kts 59°
2026-05-05 19:19 51.52808 -0.27513 5987 ft 267 kts 68°
2026-05-05 19:19 51.53419 -0.24700 6009 ft 267 kts 70°
2026-05-05 19:20 51.54013 -0.21890 6010 ft 267 kts 70°
2026-05-05 19:20 51.54721 -0.19163 5995 ft 264 kts 56°
2026-05-05 19:20 51.56021 -0.17090 5990 ft 262 kts 31°
2026-05-05 19:20 51.57710 -0.16129 5986 ft 261 kts
2026-05-05 19:21 51.59508 -0.16415 5988 ft 262 kts 342°
2026-05-05 19:21 51.61052 -0.17921 5985 ft 266 kts 316°
2026-05-05 19:21 51.62045 -0.20592 6064 ft 282 kts 291°
2026-05-05 19:21 51.62772 -0.23626 6652 ft 304 kts 304°
2026-05-05 19:22 51.64180 -0.25977 8338 ft 292 kts 325°
2026-05-05 19:22 51.65795 -0.27692 9979 ft 282 kts 330°
2026-05-05 19:22 51.67448 -0.29286 11071 ft 290 kts 330°
2026-05-05 19:22 51.69241 -0.31000 11919 ft 308 kts 330°
2026-05-05 19:23 51.71120 -0.32805 12784 ft 325 kts 329°
2026-05-05 19:23 51.73091 -0.34704 13604 ft 341 kts 329°
2026-05-05 19:23 51.75154 -0.36694 13959 ft 352 kts 329°
2026-05-05 19:23 51.77277 -0.38746 14858 ft 365 kts 329°
2026-05-05 19:24 51.79395 -0.40795 16456 ft 356 kts 329°
2026-05-05 19:24 51.81478 -0.42813 18151 ft 353 kts 329°
2026-05-05 19:24 51.83526 -0.44800 19712 ft 350 kts 329°
2026-05-05 19:24 51.85628 -0.46841 20922 ft 357 kts 328°
2026-05-05 19:25 51.87741 -0.48895 21892 ft 364 kts 328°
2026-05-05 19:25 51.89914 -0.51010 22751 ft 371 kts 328°
2026-05-05 19:25 51.92141 -0.53178 23618 ft 377 kts 328°
2026-05-05 19:25 51.94378 -0.55359 24510 ft 382 kts 328°
2026-05-05 19:26 51.96680 -0.57606 25267 ft 390 kts 327°
2026-05-05 19:26 51.99010 -0.59883 25885 ft 398 kts 327°
2026-05-05 19:26 52.01424 -0.62248 25979 ft 420 kts 328°
2026-05-05 19:26 52.04005 -0.64777 25983 ft 445 kts 328°
2026-05-05 19:27 52.06725 -0.67446 25979 ft 468 kts 327°
2026-05-05 19:27 52.09504 -0.70174 25977 ft 474 kts 327°
2026-05-05 19:27 52.12328 -0.72948 25973 ft 475 kts 327°
2026-05-05 19:27 52.15165 -0.75741 25974 ft 475 kts 327°
2026-05-05 19:28 52.17997 -0.78535 25977 ft 475 kts 327°
2026-05-05 19:28 52.20799 -0.81304 25974 ft 475 kts 327°
2026-05-05 19:28 52.23633 -0.84108 25974 ft 469 kts 327°
2026-05-05 19:28 52.26350 -0.86800 25856 ft 449 kts 327°
2026-05-05 19:29 52.28969 -0.89400 25674 ft 432 kts 327°
2026-05-05 19:29 52.31482 -0.91900 25525 ft 416 kts 326°
2026-05-05 19:29 52.33882 -0.94292 25398 ft 400 kts 326°
2026-05-05 19:29 52.36205 -0.96610 25265 ft 385 kts 326°
2026-05-05 19:30 52.38474 -0.98879 24903 ft 378 kts 326°
2026-05-05 19:30 52.40700 -1.01108 24380 ft 375 kts 326°
2026-05-05 19:30 52.42898 -1.03311 23836 ft 372 kts 326°
2026-05-05 19:30 52.45106 -1.05527 23320 ft 369 kts 326°
2026-05-05 19:31 52.47301 -1.07730 22817 ft 366 kts 326°
2026-05-05 19:31 52.49456 -1.09896 22324 ft 363 kts 326°
2026-05-05 19:31 52.51577 -1.12030 21826 ft 360 kts 327°
2026-05-05 19:31 52.53710 -1.14178 21322 ft 357 kts 327°
2026-05-05 19:32 52.55799 -1.16284 20823 ft 355 kts 327°
2026-05-05 19:32 52.57908 -1.18412 20323 ft 352 kts 327°
2026-05-05 19:32 52.59971 -1.20494 19841 ft 349 kts 327°
2026-05-05 19:32 52.62033 -1.22578 19348 ft 346 kts 327°
2026-05-05 19:33 52.64078 -1.24647 18865 ft 343 kts 327°
2026-05-05 19:33 52.66091 -1.26687 18368 ft 341 kts 327°
2026-05-05 19:33 52.68090 -1.28713 17913 ft 338 kts 327°
2026-05-05 19:33 52.70100 -1.30753 17424 ft 335 kts 327°
2026-05-05 19:34 52.72080 -1.32767 16951 ft 333 kts 327°
2026-05-05 19:34 52.74025 -1.34748 16505 ft 330 kts 327°
2026-05-05 19:34 52.75962 -1.36723 16051 ft 328 kts 327°
2026-05-05 19:35 52.79805 -1.40646 15133 ft 323 kts 327°
2026-05-05 19:35 52.81724 -1.42609 14662 ft 321 kts 328°
2026-05-05 19:35 52.83617 -1.44546 14200 ft 319 kts 328°
2026-05-05 19:35 52.85489 -1.46464 13771 ft 317 kts 328°
2026-05-05 19:36 52.87339 -1.48363 13357 ft 314 kts 328°
2026-05-05 19:36 52.89195 -1.50268 12922 ft 312 kts 328°
2026-05-05 19:36 52.91013 -1.52137 12538 ft 307 kts 328°
2026-05-05 19:36 52.92809 -1.53984 12178 ft 303 kts 328°
2026-05-05 19:37 52.94594 -1.55823 11811 ft 300 kts 328°
2026-05-05 19:37 52.96339 -1.57622 11447 ft 296 kts 328°
2026-05-05 19:37 52.98080 -1.59419 11067 ft 293 kts 328°
2026-05-05 19:37 52.99812 -1.61207 10699 ft 290 kts 328°
2026-05-05 19:38 53.01496 -1.62949 10323 ft 288 kts 328°
2026-05-05 19:38 53.03195 -1.64707 9950 ft 285 kts 329°
2026-05-05 19:38 53.04863 -1.66465 9562 ft 283 kts 324°
2026-05-05 19:38 53.06269 -1.68697 9185 ft 281 kts 313°
2026-05-05 19:39 53.07550 -1.71136 8808 ft 280 kts 311°
2026-05-05 19:39 53.08811 -1.73581 8450 ft 277 kts 311°
2026-05-05 19:39 53.10038 -1.75964 8151 ft 273 kts 311°
2026-05-05 19:39 53.11281 -1.78376 7861 ft 269 kts 311°
2026-05-05 19:40 53.12497 -1.80743 7604 ft 265 kts 311°
2026-05-05 19:40 53.13674 -1.83035 7360 ft 261 kts 311°
2026-05-05 19:40 53.14849 -1.85323 7104 ft 257 kts 311°
2026-05-05 19:40 53.15995 -1.87553 6856 ft 254 kts 311°
2026-05-05 19:41 53.17143 -1.89790 6595 ft 251 kts 311°
2026-05-05 19:41 53.18279 -1.92004 6332 ft 248 kts 311°
2026-05-05 19:41 53.19387 -1.94167 6083 ft 246 kts 312°
2026-05-05 19:41 53.20497 -1.96336 5826 ft 244 kts 312°
2026-05-05 19:42 53.21586 -1.98465 5601 ft 241 kts 312°
2026-05-05 19:42 53.22668 -2.00583 5392 ft 238 kts 312°
2026-05-05 19:42 53.23480 -2.02946 5198 ft 237 kts 286°
2026-05-05 19:42 53.23452 -2.05643 5045 ft 234 kts 255°
2026-05-05 19:43 53.22900 -2.08200 4920 ft 231 kts 251°
2026-05-05 19:43 53.22318 -2.10666 4837 ft 230 kts 250°
2026-05-05 19:43 53.21729 -2.13144 4766 ft 227 kts 250°
2026-05-05 19:43 53.21154 -2.15557 4680 ft 222 kts 250°
2026-05-05 19:44 53.20580 -2.17947 4608 ft 221 kts 250°
2026-05-05 19:44 53.20012 -2.20312 4538 ft 221 kts 250°
2026-05-05 19:44 53.19448 -2.22682 4459 ft 221 kts 250°
2026-05-05 19:44 53.18876 -2.25091 4388 ft 221 kts 250°
2026-05-05 19:45 53.18320 -2.27446 4321 ft 220 kts 250°
2026-05-05 19:45 53.17756 -2.29826 4255 ft 219 kts 250°
2026-05-05 19:45 53.17197 -2.32187 4170 ft 220 kts 250°
2026-05-05 19:45 53.16628 -2.34577 4101 ft 220 kts 250°
2026-05-05 19:46 53.16070 -2.36926 4034 ft 220 kts 250°
2026-05-05 19:46 53.15501 -2.39312 3964 ft 220 kts 250°
2026-05-05 19:46 53.14934 -2.41678 3889 ft 220 kts 250°
2026-05-05 19:46 53.14553 -2.44117 3805 ft 219 kts 274°
2026-05-05 19:47 53.14822 -2.46545 3716 ft 208 kts 288°
2026-05-05 19:47 53.15172 -2.48806 3641 ft 198 kts 288°
2026-05-05 19:47 53.15536 -2.50982 3569 ft 191 kts 298°
2026-05-05 19:47 53.16375 -2.52634 3468 ft 189 kts 333°
2026-05-05 19:48 53.17607 -2.53258 3249 ft 184 kts 355°
2026-05-05 19:48 53.18846 -2.53518 3069 ft 179 kts 356°
2026-05-05 19:48 53.20066 -2.53761 2930 ft 177 kts 356°
2026-05-05 19:48 53.21288 -2.53926 2779 ft 175 kts
2026-05-05 19:49 53.22384 -2.53116 2696 ft 172 kts 40°
2026-05-05 19:49 53.23187 -2.51665 2693 ft 171 kts 50°
2026-05-05 19:49 53.23924 -2.50112 2690 ft 171 kts 51°
2026-05-05 19:49 53.24674 -2.48563 2695 ft 170 kts 50°
2026-05-05 19:50 53.25424 -2.47029 2676 ft 171 kts 50°
2026-05-05 19:50 53.26180 -2.45482 2499 ft 167 kts 50°
2026-05-05 19:50 53.26915 -2.43985 2676 ft 168 kts 48°
2026-05-05 19:50 53.27886 -2.42854 2633 ft 175 kts 30°
2026-05-05 19:51 53.28708 -2.41549 2366 ft 159 kts 63°
2026-05-05 19:51 53.29167 -2.39955 2135 ft 147 kts 48°
2026-05-05 19:51 53.29872 -2.38797 1874 ft 137 kts 43°
2026-05-05 19:51 53.30476 -2.37637 1609 ft 129 kts 51°
2026-05-05 19:52 53.31016 -2.36467 1357 ft 125 kts 51°
2026-05-05 19:52 53.31571 -2.35326 1172 ft 130 kts 50°
2026-05-05 19:52 53.32158 -2.34118 1003 ft 136 kts 51°
2026-05-05 19:52 53.32755 -2.32896 847 ft 133 kts 50°
2026-05-05 19:53 53.33328 -2.31713 666 ft 132 kts 51°
2026-05-05 19:53 53.33910 -2.30516 516 ft 133 kts 51°
2026-05-05 19:53 53.34491 -2.29316 342 ft 135 kts 51°
2026-05-05 19:53 53.35069 -2.28123 239 ft 122 kts 51°
2026-05-05 19:54 53.35516 -2.27195 238 ft 79 kts 51°
2026-05-05 19:54 53.35693 -2.26828 238 ft 20 kts 51°
2026-05-05 19:54 53.35771 -2.26688 238 ft 13 kts 24°
2026-05-05 19:54 53.35836 -2.26683 238 ft 9 kts 349°
2026-05-05 19:55 53.35887 -2.26697 238 ft 8 kts 352°
2026-05-05 19:55 53.35930 -2.26748 238 ft 7 kts 271°
2026-05-05 19:55 53.35925 -2.26773 238 ft 0 kts 240°
2026-05-05 19:55 53.35925 -2.26774 238 ft 0 kts 240°
2026-05-05 19:56 53.35924 -2.26776 238 ft 0 kts 240°
2026-05-05 19:56 53.35912 -2.26810 238 ft 6 kts 237°
2026-05-05 19:56 53.35874 -2.26896 238 ft 10 kts 233°
2026-05-05 19:56 53.35836 -2.26990 238 ft 5 kts 238°
2026-05-05 19:57 53.35811 -2.27054 238 ft 7 kts 236°
2026-05-05 19:57 53.35766 -2.27152 238 ft 13 kts 231°
2026-05-05 19:57 53.35705 -2.27278 238 ft 14 kts 231°
2026-05-05 19:57 53.35682 -2.27326 238 ft 0 kts 232°
2026-05-05 19:59 53.35675 -2.27341 238 ft 7 kts 232°
2026-05-05 19:59 53.35627 -2.27441 238 ft 12 kts 233°
2026-05-05 20:00 53.35645 -2.27556 238 ft 12 kts 318°
2026-05-05 20:00 53.35719 -2.27630 238 ft 12 kts 336°
2026-05-05 20:00 53.35807 -2.27659 238 ft 13 kts
2026-05-05 20:00 53.35902 -2.27643 238 ft 14 kts
2026-05-05 20:01 53.36000 -2.27623 238 ft 14 kts
2026-05-05 20:01 53.36050 -2.27615 238 ft 6 kts 356°
2026-05-05 20:01 53.36076 -2.27664 238 ft 6 kts 284°
2026-05-05 20:01 53.36077 -2.27675 238 ft 0 kts 285°
2026-05-05 20:09 53.36078 -2.27676 238 ft 0 kts 285°
2026-05-05 20:09 53.36085 -2.27719 238 ft 3 kts 284°
2026-05-05 20:09 53.36093 -2.27774 238 ft 5 kts 285°
2026-05-05 20:09 53.36107 -2.27851 238 ft 7 kts 285°
2026-05-05 20:10 53.36120 -2.27912 238 ft 2 kts 296°
2026-05-05 20:10 53.36126 -2.27929 238 ft 0 kts 300°
2026-05-05 20:11 53.36126 -2.27930 238 ft 0 kts 300°
2026-05-05 20:11 53.36135 -2.27954 238 ft 6 kts 306°
2026-05-05 20:11 53.36189 -2.28053 238 ft 16 kts 314°
2026-05-05 20:12 53.36287 -2.28220 238 ft 23 kts 314°
2026-05-05 20:12 53.36400 -2.28408 238 ft 22 kts 316°
2026-05-05 20:12 53.36512 -2.28594 238 ft 22 kts 316°
2026-05-05 20:12 53.36573 -2.28727 238 ft 12 kts 300°
2026-05-05 20:13 53.36624 -2.28765 238 ft 4 kts 20°
2026-05-05 20:13 53.36656 -2.28754 238 ft 4 kts 339°
2026-05-05 20:13 53.36687 -2.28795 238 ft 6 kts 315°
2026-05-05 20:13 53.36705 -2.28825 238 ft 1 kts 315°
2026-05-05 20:14 53.36706 -2.28829 238 ft 0 kts 315°